User: anonymous   Login
Location: Chanteloup
(48.8560°N, 2.7390°E)
Time: 22:38:55
(UTC+00:00)
Language:

Cosmos 2278 - Orbit

View from above orbital plane
View from above orbital plane
View from above satellite
View from above satellite

Ground track
Ground track

The orbit data is extracted from the following two-line orbital elements,

1 23087U 94023A   22026.54570348  .00000044  00000-0  48027-4 0  9999
2 23087  71.0524  78.4077 0008844 178.2635 181.8520 14.13839523432317
Epoch (UTC): 26 January 2022 13:05:48
Eccentricity: 0.0008844
inclination: 71.0524°
perigee height: 840 km
apogee height: 852 km
right ascension of ascending node: 78.4077°
argument of perigee: 178.2635°
revolutions per day: 14.13839523
mean anomaly at epoch: 181.8520°
orbit number at epoch: 43231

The dashed part of the orbit path shows where the satellite is in the earth's shadow,  

DLR